�������l�o���
Date,Time,MP-1(��Sv/h),MP-2(��Sv/h),MP-3(��Sv/h),MP-4(��Sv/h),MP-5(��Sv/h),MP-6(��Sv/h),MP-7(��Sv/h),MP-8(��Sv/h),����,����(m/s),���J
2022/04/12,00:00,0.588,0.871,0.558,1.062,0.757,0.352,0.608,0.571,��쐼,6.3,��
2022/04/12,00:10,0.589,0.870,0.556,1.062,0.756,0.352,0.609,0.573,��쐼,5.5,��
2022/04/12,00:20,0.588,0.871,0.555,1.061,0.757,0.353,0.609,0.572,��쐼,5.0,��
2022/04/12,00:30,0.586,0.872,0.554,1.062,0.757,0.352,0.608,0.571,��,5.9,��
2022/04/12,00:40,0.585,0.872,0.557,1.064,0.757,0.353,0.606,0.573,��,6.5,��
2022/04/12,00:50,0.587,0.871,0.556,1.063,0.758,0.353,0.609,0.573,��,6.7,��
2022/04/12,01:00,0.587,0.874,0.556,1.062,0.756,0.352,0.607,0.574,��,7.7,��
2022/04/12,01:10,0.587,0.872,0.557,1.062,0.756,0.353,0.608,0.571,��쐼,7.0,��
2022/04/12,01:20,0.586,0.872,0.557,1.061,0.756,0.353,0.609,0.572,��쐼,6.6,��
2022/04/12,01:30,0.587,0.873,0.558,1.062,0.756,0.352,0.608,0.573,��쐼,6.2,��
2022/04/12,01:40,0.586,0.870,0.555,1.063,0.756,0.353,0.609,0.572,��,7.8,��
2022/04/12,01:50,0.587,0.871,0.556,1.065,0.756,0.353,0.608,0.572,��쐼,6.5,��
2022/04/12,02:00,0.586,0.869,0.555,1.063,0.757,0.354,0.606,0.572,��쐼,6.0,��
2022/04/12,02:10,0.586,0.871,0.556,1.060,0.757,0.351,0.607,0.571,��쐼,5.7,��
2022/04/12,02:20,0.585,0.870,0.556,1.061,0.756,0.354,0.609,0.571,��쐼,3.4,��
2022/04/12,02:30,0.584,0.870,0.556,1.064,0.754,0.352,0.608,0.573,��쐼,3.5,��
2022/04/12,02:40,0.586,0.871,0.558,1.062,0.756,0.352,0.608,0.571,�쐼,2.8,��
2022/04/12,02:50,0.586,0.870,0.556,1.063,0.757,0.351,0.608,0.572,���쐼,1.7,��
2022/04/12,03:00,0.587,0.871,0.556,1.062,0.756,0.352,0.609,0.574,��,2.0,��
2022/04/12,03:10,0.585,0.872,0.554,1.060,0.755,0.353,0.608,0.572,���쐼,0.8,��
2022/04/12,03:20,0.587,0.871,0.555,1.063,0.757,0.352,0.609,0.572,��쐼,1.9,��
2022/04/12,03:30,0.586,0.871,0.556,1.060,0.755,0.352,0.608,0.572,��쐼,2.6,��
2022/04/12,03:40,0.586,0.870,0.556,1.061,0.757,0.351,0.608,0.572,��쐼,3.1,��
2022/04/12,03:50,0.586,0.871,0.556,1.061,0.757,0.353,0.607,0.572,�쐼,2.0,��
2022/04/12,04:00,0.586,0.868,0.556,1.062,0.756,0.353,0.607,0.573,��,2.2,��
2022/04/12,04:10,0.587,0.869,0.557,1.060,0.756,0.353,0.608,0.572,�k��,2.0,��
2022/04/12,04:20,0.586,0.871,0.555,1.063,0.755,0.353,0.607,0.570,�k,1.7,��
2022/04/12,04:30,0.586,0.868,0.556,1.060,0.757,0.352,0.608,0.572,�k�k��,1.5,��
2022/04/12,04:40,0.586,0.870,0.556,1.061,0.756,0.352,0.610,0.571,�k,1.2,��
2022/04/12,04:50,0.587,0.870,0.557,1.058,0.756,0.352,0.606,0.573,�k�k��,0.8,��
2022/04/12,05:00,0.585,0.869,0.557,1.063,0.757,0.351,0.606,0.573,�k�k��,0.6,��
2022/04/12,05:10,0.586,0.870,0.557,1.062,0.756,0.352,0.607,0.573,�k��,0.9,��
2022/04/12,05:20,0.586,0.869,0.557,1.062,0.755,0.352,0.608,0.573,-,CALM,��
2022/04/12,05:30,0.584,0.871,0.557,1.061,0.755,0.352,0.608,0.573,-,CALM,��
2022/04/12,05:40,0.585,0.870,0.555,1.061,0.755,0.353,0.607,0.572,���쐼,0.6,��
2022/04/12,05:50,0.587,0.868,0.557,1.062,0.755,0.352,0.608,0.573,���쐼,0.6,��
2022/04/12,06:00,0.586,0.869,0.555,1.062,0.755,0.351,0.607,0.571,���k��,0.6,��
2022/04/12,06:10,0.585,0.869,0.556,1.061,0.756,0.351,0.607,0.572,�k��,1.7,��
2022/04/12,06:20,0.585,0.871,0.556,1.062,0.757,0.352,0.608,0.572,�k��,1.7,��
2022/04/12,06:30,0.584,0.869,0.555,1.061,0.758,0.352,0.608,0.572,�k��,1.5,��
2022/04/12,06:40,0.586,0.870,0.555,1.060,0.756,0.353,0.608,0.571,�k��,1.2,��
2022/04/12,06:50,0.586,0.871,0.557,1.062,0.755,0.352,0.608,0.572,�k�k��,0.6,��
2022/04/12,07:00,0.585,0.872,0.555,1.062,0.756,0.354,0.608,0.573,���k��,0.9,��
2022/04/12,07:10,0.587,0.870,0.557,1.063,0.757,0.351,0.609,0.571,-,CALM,��
2022/04/12,07:20,0.587,0.870,0.556,1.064,0.756,0.353,0.608,0.571,��,0.8,��
2022/04/12,07:30,0.586,0.870,0.557,1.061,0.758,0.351,0.609,0.570,��쐼,1.2,��
2022/04/12,07:40,0.585,0.870,0.556,1.062,0.757,0.350,0.609,0.571,��쐼,1.5,��
2022/04/12,07:50,0.587,0.869,0.556,1.062,0.756,0.350,0.609,0.572,��,2.6,��
2022/04/12,08:00,0.588,0.867,0.557,1.062,0.755,0.351,0.609,0.572,��,1.2,��
2022/04/12,08:10,0.588,0.869,0.558,1.065,0.757,0.351,0.609,0.573,��,1.4,��
2022/04/12,08:20,0.588,0.869,0.556,1.063,0.753,0.350,0.609,0.572,��쓌,1.5,��
2022/04/12,08:30,0.587,0.867,0.557,1.062,0.756,0.351,0.607,0.571,��쓌,2.0,��
2022/04/12,08:40,0.586,0.868,0.557,1.063,0.757,0.351,0.606,0.571,��쓌,1.7,��
2022/04/12,08:50,0.585,0.869,0.556,1.064,0.757,0.350,0.607,0.569,�쓌,2.3,��
2022/04/12,09:00,0.585,0.865,0.554,1.064,0.755,0.352,0.608,0.568,��쓌,2.9,��
2022/04/12,09:10,0.585,0.867,0.557,1.064,0.756,0.351,0.607,0.570,�쓌,3.2,��
2022/04/12,09:20,0.584,0.869,0.558,1.063,0.756,0.352,0.606,0.570,�쓌,3.3,��
2022/04/12,09:30,0.585,0.869,0.554,1.064,0.755,0.350,0.605,0.570,��쓌,3.1,��
2022/04/12,09:40,0.585,0.866,0.563,1.065,0.755,0.350,0.605,0.571,��쓌,4.3,��
2022/04/12,09:50,0.586,0.868,0.554,1.066,0.755,0.350,0.606,0.570,��쓌,4.6,��
2022/04/12,10:00,0.586,0.867,0.556,1.063,0.754,0.352,0.606,0.570,��쓌,4.1,��
2022/04/12,10:10,0.586,0.868,0.556,1.062,0.754,0.352,0.607,0.570,��쓌,3.7,��
2022/04/12,10:20,0.587,0.871,0.552,1.066,0.754,0.353,0.607,0.570,��,3.0,��
2022/04/12,10:30,0.585,0.868,0.555,1.063,0.756,0.352,0.608,0.569,��쓌,2.6,��
2022/04/12,10:40,0.582,0.869,0.555,1.064,0.749,0.351,0.608,0.570,��쓌,2.8,��
2022/04/12,10:50,0.586,0.865,0.557,1.065,0.753,0.353,0.608,0.570,��쓌,2.3,��
2022/04/12,11:00,0.587,0.862,0.556,1.066,0.756,0.353,0.606,0.568,�쓌,3.2,��
2022/04/12,11:10,0.587,0.869,0.556,1.066,0.759,0.352,0.606,0.571,�쓌,3.2,��
2022/04/12,11:20,0.586,0.871,0.556,1.066,0.758,0.352,0.608,0.572,�쓌,3.0,��
2022/04/12,11:30,0.587,0.868,0.558,1.067,0.758,0.352,0.607,0.569,�쓌,4.8,��
2022/04/12,11:40,0.589,0.871,0.559,1.066,0.757,0.353,0.608,0.570,�쓌,6.7,��
2022/04/12,11:50,0.588,0.871,0.557,1.070,0.758,0.353,0.609,0.571,��쓌,6.4,��
2022/04/12,12:00,0.588,0.873,0.557,1.065,0.760,0.352,0.608,0.571,��쓌,6.0,��
2022/04/12,12:10,0.588,0.872,0.558,1.066,0.759,0.352,0.609,0.570,��쓌,5.6,��
2022/04/12,12:20,0.588,0.872,0.557,1.063,0.758,0.353,0.610,0.570,��쓌,4.5,��
2022/04/12,12:30,0.587,0.872,0.559,1.066,0.760,0.353,0.608,0.570,��쓌,4.0,��
2022/04/12,12:40,0.590,0.875,0.557,1.066,0.758,0.352,0.609,0.571,��쓌,4.3,��
2022/04/12,12:50,0.587,0.875,0.558,1.066,0.759,0.353,0.610,0.571,��쓌,4.6,��
2022/04/12,13:00,0.590,0.872,0.558,1.066,0.758,0.353,0.610,0.571,�쓌,4.5,��
2022/04/12,13:10,0.589,0.874,0.558,1.066,0.757,0.353,0.609,0.572,�쓌,4.8,��
2022/04/12,13:20,0.592,0.871,0.558,1.068,0.762,0.352,0.609,0.569,�쓌,4.6,��
2022/04/12,13:30,0.590,0.872,0.559,1.067,0.761,0.353,0.611,0.572,�쓌,4.4,��
2022/04/12,13:40,0.588,0.869,0.557,1.064,0.761,0.353,0.612,0.570,��쓌,5.0,��
2022/04/12,13:50,0.588,0.871,0.559,1.065,0.759,0.353,0.610,0.572,��쓌,4.5,��
2022/04/12,14:00,0.588,0.870,0.560,1.065,0.761,0.352,0.610,0.573,��쓌,4.5,��
2022/04/12,14:10,0.588,0.870,0.558,1.068,0.762,0.353,0.611,0.572,��쓌,4.6,��
2022/04/12,14:20,0.588,0.871,0.558,1.065,0.761,0.355,0.611,0.572,��쓌,5.0,��
2022/04/12,14:30,0.589,0.870,0.559,1.066,0.761,0.353,0.609,0.572,��쓌,5.0,��
2022/04/12,14:40,0.588,0.871,0.560,1.067,0.761,0.353,0.609,0.571,��쓌,4.9,��
2022/04/12,14:50,0.590,0.871,0.558,1.068,0.761,0.354,0.611,0.571,��쓌,5.0,��
2022/04/12,15:00,0.589,0.871,0.557,1.070,0.762,0.352,0.610,0.571,��쓌,4.7,��
2022/04/12,15:10,0.588,0.871,0.558,1.067,0.762,0.355,0.610,0.573,��쓌,4.8,��
2022/04/12,15:20,0.589,0.875,0.558,1.069,0.761,0.354,0.610,0.572,��쓌,5.1,��
2022/04/12,15:30,0.589,0.872,0.557,1.067,0.760,0.353,0.611,0.571,��쓌,5.1,��
2022/04/12,15:40,0.589,0.873,0.558,1.068,0.764,0.353,0.610,0.572,��쓌,5.0,��
2022/04/12,15:50,0.588,0.874,0.559,1.064,0.763,0.351,0.610,0.574,��쓌,5.1,��
2022/04/12,16:00,0.591,0.874,0.558,1.064,0.761,0.353,0.609,0.573,��쓌,5.7,��
2022/04/12,16:10,0.588,0.874,0.559,1.065,0.763,0.352,0.609,0.572,��,5.5,��
2022/04/12,16:20,0.588,0.874,0.560,1.064,0.761,0.353,0.610,0.572,��,5.4,��
2022/04/12,16:30,0.589,0.874,0.559,1.065,0.760,0.352,0.610,0.571,��,4.8,��
2022/04/12,16:40,0.589,0.876,0.559,1.067,0.763,0.354,0.609,0.571,��,4.1,��
2022/04/12,16:50,0.588,0.874,0.557,1.066,0.762,0.354,0.610,0.570,��,4.8,��
2022/04/12,17:00,0.589,0.873,0.559,1.067,0.761,0.355,0.609,0.571,��,4.9,��
2022/04/12,17:10,0.589,0.871,0.558,1.068,0.763,0.354,0.610,0.571,��,6.5,��
2022/04/12,17:20,0.587,0.876,0.559,1.067,0.762,0.354,0.610,0.573,��,6.3,��
2022/04/12,17:30,0.588,0.874,0.559,1.068,0.760,0.355,0.608,0.572,��,7.0,��
2022/04/12,17:40,0.588,0.877,0.558,1.067,0.760,0.355,0.610,0.572,��,7.2,��
2022/04/12,17:50,0.587,0.876,0.558,1.066,0.763,0.355,0.610,0.573,��,7.0,��
2022/04/12,18:00,0.589,0.877,0.559,1.070,0.761,0.354,0.609,0.576,��,6.6,��
2022/04/12,18:10,0.590,0.877,0.559,1.071,0.761,0.354,0.611,0.573,��,6.1,��
2022/04/12,18:20,0.591,0.875,0.559,1.069,0.761,0.354,0.610,0.572,��,3.0,��
2022/04/12,18:30,0.591,0.876,0.560,1.069,0.764,0.353,0.612,0.573,��,6.9,��
2022/04/12,18:40,0.590,0.875,0.560,1.069,0.762,0.355,0.610,0.576,��,6.3,��
2022/04/12,18:50,0.592,0.874,0.560,1.068,0.762,0.354,0.612,0.574,��,6.3,��
2022/04/12,19:00,0.592,0.876,0.560,1.067,0.762,0.355,0.611,0.574,��,6.0,��
2022/04/12,19:10,0.592,0.878,0.561,1.070,0.763,0.355,0.613,0.573,��,5.9,��
2022/04/12,19:20,0.591,0.874,0.560,1.068,0.763,0.354,0.611,0.574,��,4.4,��
2022/04/12,19:30,0.591,0.876,0.560,1.069,0.764,0.354,0.610,0.574,��,4.5,��
2022/04/12,19:40,0.591,0.876,0.558,1.069,0.762,0.355,0.611,0.573,��,4.7,��
2022/04/12,19:50,0.590,0.876,0.560,1.068,0.764,0.353,0.611,0.574,��,5.9,��
2022/04/12,20:00,0.590,0.876,0.561,1.071,0.761,0.353,0.610,0.572,��,6.1,��
2022/04/12,20:10,0.590,0.878,0.561,1.068,0.764,0.355,0.611,0.574,��,6.9,��
2022/04/12,20:20,0.589,0.876,0.560,1.068,0.763,0.354,0.612,0.574,��,7.5,��
2022/04/12,20:30,0.589,0.875,0.561,1.069,0.764,0.355,0.610,0.572,��,6.0,��
2022/04/12,20:40,0.590,0.877,0.559,1.068,0.764,0.354,0.612,0.573,��쐼,4.8,��
2022/04/12,20:50,0.590,0.875,0.559,1.069,0.764,0.353,0.610,0.573,��,5.4,��
2022/04/12,21:00,0.591,0.875,0.560,1.070,0.764,0.354,0.612,0.572,��쐼,6.5,��
2022/04/12,21:10,0.591,0.877,0.560,1.069,0.764,0.354,0.611,0.574,��쐼,6.6,��
2022/04/12,21:20,0.590,0.876,0.559,1.069,0.765,0.355,0.611,0.575,��쐼,5.7,��
2022/04/12,21:30,0.590,0.875,0.561,1.067,0.764,0.354,0.612,0.573,��쐼,6.1,��
2022/04/12,21:40,0.589,0.877,0.561,1.069,0.762,0.356,0.610,0.573,��쐼,4.9,��
2022/04/12,21:50,0.589,0.877,0.558,1.069,0.763,0.354,0.609,0.574,��쐼,5.2,��
2022/04/12,22:00,0.590,0.877,0.558,1.069,0.761,0.353,0.611,0.573,��쐼,4.6,��
2022/04/12,22:10,0.590,0.875,0.559,1.068,0.763,0.355,0.611,0.573,��,4.2,��
2022/04/12,22:20,0.589,0.875,0.560,1.069,0.761,0.354,0.612,0.574,��,4.1,��
2022/04/12,22:30,0.590,0.877,0.560,1.068,0.762,0.356,0.609,0.572,��쐼,3.5,��
2022/04/12,22:40,0.590,0.877,0.560,1.069,0.764,0.354,0.610,0.574,��쐼,2.9,��
2022/04/12,22:50,0.591,0.877,0.558,1.072,0.763,0.355,0.610,0.573,��,3.4,��
2022/04/12,23:00,0.589,0.878,0.558,1.071,0.763,0.354,0.610,0.574,��,3.2,��
2022/04/12,23:10,0.589,0.875,0.559,1.069,0.761,0.354,0.611,0.573,��,2.8,��
2022/04/12,23:20,0.590,0.876,0.561,1.068,0.762,0.354,0.609,0.574,��쐼,2.8,��
2022/04/12,23:30,0.588,0.875,0.560,1.068,0.762,0.354,0.610,0.574,��쐼,2.8,��
2022/04/12,23:40,0.590,0.876,0.559,1.069,0.762,0.355,0.610,0.574,��쐼,1.5,��
2022/04/12,23:50,0.589,0.877,0.559,1.069,0.763,0.353,0.609,0.574,��쐼,2.2,��
